GUNLAK-WX Weather Reports


Display with metric or nautical units.
time (UTC)temp
F
wind
direction
speed
MPH
gust
MPH
rain 1hr
in
rain 24hr
in
rain mn
in
humidity
%
barometer
mb
20260503021614 39 202 4.0 0.0 0.00 0.00 0.00 72 989.7
20260503020143 39 209 4.0 0.0 0.00 0.00 0.00 72 989.7
20260503014614 40 223 4.0 0.0 0.00 0.00 0.00 62 989.2
20260503013132 40 234 4.0 0.0 0.00 0.00 0.00 62 989.2
20260503011614 41 234 4.0 0.0 0.00 0.00 0.00 62 989.2
20260503010144 41 242 4.0 0.0 0.00 0.00 0.00 62 989.2
20260503004613 42 246 4.0 0.0 0.00 0.00 0.00 47 990.0
20260503003127 43 241 4.0 0.0 0.00 0.00 0.00 48 990.1
20260503001614 44 250 3.0 0.0 0.00 0.00 0.00 48 990.1
20260503000149 45 266 3.0 0.0 0.00 0.00 0.00 48 990.1
20260502234616 46 283 4.0 0.0 0.00 0.00 0.00 38 990.1
20260502233127 46 285 6.0 0.0 0.00 0.00 0.00 39 990.1
20260502231615 46 287 6.0 0.0 0.00 0.00 0.00 39 990.1
20260502230142 47 285 7.0 0.0 0.00 0.00 0.00 39 990.1
20260502224615 47 285 8.0 0.0 0.00 0.00 0.00 39 990.4
20260502223133 47 285 9.0 0.0 0.00 0.00 0.00 38 991.2
20260502221615 47 284 9.0 0.0 0.00 0.00 0.00 38 991.2
20260502220142 47 284 10.0 0.0 0.00 0.00 0.00 38 991.2
20260502214615 47 285 10.0 0.0 0.00 0.00 0.00 40 991.2
20260502213133 48 282 9.0 0.0 0.00 0.00 0.00 41 990.8
20260502211615 48 278 9.0 0.0 0.00 0.00 0.00 41 990.8
20260502210144 48 275 9.0 0.0 0.00 0.00 0.00 41 990.8
20260502204614 48 275 10.0 0.0 0.00 0.00 0.00 37 991.3
20260502203133 48 275 9.0 0.0 0.00 0.00 0.00 37 991.8
20260502201615 47 279 9.0 0.0 0.00 0.00 0.00 37 991.7
20260502200141 47 281 9.0 0.0 0.00 0.00 0.00 37 991.7
20260502194615 47 283 10.0 0.0 0.00 0.00 0.00 38 991.9
20260502193128 47 285 10.0 0.0 0.00 0.00 0.00 38 991.9
20260502191615 48 288 11.0 0.0 0.00 0.00 0.00 38 991.9
20260502190143 47 284 11.0 0.0 0.00 0.00 0.00 38 991.9
20260502183134 46 286 11.0 0.0 0.00 0.00 0.00 45 991.8
20260502181613 47 288 11.0 0.0 0.00 0.00 0.00 45 991.8
20260502180149 46 289 11.0 0.0 0.00 0.00 0.00 45 991.8
20260502170139 46 281 8.0 0.0 0.00 0.00 0.00 44 992.3
20260502163134 45 278 7.0 0.0 0.00 0.00 0.00 45 991.5
20260502161614 45 281 7.0 0.0 0.00 0.00 0.00 45 991.5
20260502160145 44 283 7.0 0.0 0.00 0.00 0.00 45 991.5
20260502151615 43 287 6.0 0.0 0.00 0.00 0.00 51 991.6
20260502150148 42 288 5.0 0.0 0.00 0.00 0.00 51 991.6
20260502130143 37 332 4.0 0.0 0.00 0.00 0.00 74 992.0
20260502123132 35 325 3.0 0.0 0.00 0.00 0.00 80 991.9
20260502121615 35 325 3.0 0.0 0.00 0.00 0.00 80 991.9
20260502120158 34 315 3.0 0.0 0.00 0.00 0.00 80 991.9
20260502114615 33 305 2.0 0.0 0.00 0.00 0.00 87 991.6
20260502113136 32 180 1.0 0.0 0.00 0.00 0.00 85 991.6
20260502111615 32 162 2.0 0.0 0.00 0.00 0.00 85 991.6
20260502110144 31 180 1.0 0.0 0.00 0.00 0.00 85 991.6
20260502104614 31 186 2.0 0.0 0.00 0.00 0.00 84 991.4
20260502103133 31 135 1.0 0.0 0.00 0.00 0.00 84 991.7
20260502101614 32 135 2.0 0.0 0.00 0.00 0.00 84 991.7
20260502100144 31 135 2.0 0.0 0.00 0.00 0.00 84 991.7
20260502090144 31 252 0.0 0.0 0.00 0.00 0.00 87 991.2
20260502070145 31 315 3.0 0.0 0.00 0.00 0.00 83 990.4
20260502064614 32 312 3.0 0.0 0.00 0.00 0.00 80 991.5
20260502063134 32 298 3.0 0.0 0.00 0.00 0.00 81 991.5
20260502061614 32 288 3.0 0.0 0.00 0.00 0.00 81 991.5
20260502060200 32 280 3.0 0.0 0.00 0.00 0.00 81 991.5
20260502054614 32 285 3.0 0.0 0.00 0.00 0.00 76 990.6
20260502053133 33 300 3.0 0.0 0.00 0.00 0.00 78 991.1
20260502051613 33 306 4.0 0.0 0.00 0.00 0.00 78 991.1
20260502050145 33 313 4.0 0.0 0.00 0.00 0.00 78 991.1
20260502044615 33 313 4.0 0.0 0.00 0.00 0.00 76 990.6
20260502043132 33 335 5.0 0.0 0.00 0.00 0.00 73 990.7
20260502041614 34 329 5.0 0.0 0.00 0.00 0.00 73 990.7
20260502040146 34 322 5.0 0.0 0.00 0.00 0.00 73 990.7
20260502034614 34 317 5.0 0.0 0.00 0.00 0.00 69 990.1
20260502033134 34 315 4.0 0.0 0.00 0.00 0.00 71 989.7
20260502031613 35 319 4.0 0.0 0.00 0.00 0.00 71 989.7
20260502030144 35 319 5.0 0.0 0.00 0.00 0.00 71 989.7
20260502024612 35 310 5.0 0.0 0.00 0.00 0.00 67 989.2
20260502023131 35 308 5.0 0.0 0.00 0.00 0.00 69 990.1